Regional Weather Roundup
Issued by NWS

Home | Current Version | Previous Version | Graphics & Text | Print | Product List | Glossary Off
Versions: 1 2 3 4 5 6 7 8 9 10 11 12 13 14 15 16 17 18 19 20 21 22 23 24 25 26 27 28 29 30 31 32 33 34 35 36 37 38 39 40 41 42 43 44 45 46 47 48 49 50

000
ASUS43 KDMX 251901
RWRIA

WEATHER ROUNDUP FOR IOWA
NATIONAL WEATHER SERVICE DES MOINES IA
200 PM CDT SUN JUN 25 2017

NOTE: "FAIR" INDICATES FEW OR NO CLOUDS BELOW 12,000 FEET WITH NO
SIGNIFICANT WEATHER AND/OR OBSTRUCTIONS TO VISIBILITY.

* - THESE STATIONS ARE NOT NWS STATIONS...THUS NOT UNDER NWS
QUALITY CONTROL.  THEY ALSO DO NOT REPORT WEATHER SUCH
AS PRECIPITATION OR FOG.

IAZ001>003-012>014-020>022-031>034-043>046-252000-
   NORTHWEST IOWA

CITY           SKY/WX    TMP DP  RH WIND       PRES   REMARKS
CARROLL *      SUNNY     70  43  37 NW17G26   30.25F
CHEROKEE *     SUNNY     68  44  42 NW10G23   30.26F
DENISON *      SUNNY     70  43  37 NW13      30.28F
LE MARS *      SUNNY     70  43  37 NW14G23   30.27F
ORANGE CITY *  SUNNY     68  45  42 NW10G17   30.27S
SHELDON *      MOSUNNY   68  41  37 W16       30.24F
SIOUX CITY     SUNNY     73  42  32 N15       30.26F
SPENCER        MOSUNNY   70  42  36 NW14G25   30.25S
STORM LAKE *     N/A     68  41  37 NW20G26   30.26S
$$

IAZ055>058-069>071-079>083-090>094-252000-
   SOUTHWEST IOWA

CITY           SKY/WX    TMP DP  RH WIND       PRES   REMARKS
ATLANTIC *     SUNNY     70  41  35 NW12G20   30.27F
AUDUBON *      SUNNY     70  43  37 NW7G20    30.28S
CLARINDA *     SUNNY     72  45  37 NW12G24   30.31S
COUNCIL BLFS * SUNNY     72  43  35 NW14G21   30.28F
CRESTON *      SUNNY     70  43  37 NW15G28   30.28F
HARLAN  *      SUNNY     70  43  37 NW14G23   30.31F
LAMONI         SUNNY     71  44  37 NW20G26   30.26F
RED OAK *      SUNNY     70  46  43 NW14      30.28F
SHENANDOAH *   SUNNY     72  46  40 NW10      30.29F
$$

IAZ047>049-059>061-072>074-084-252000-
   CENTRAL IOWA

CITY           SKY/WX    TMP DP  RH WIND       PRES   REMARKS
AMES           SUNNY     71  42  35 NW20      30.23F
ANKENY *       SUNNY     70  45  40 W16G22    30.24F
BOONE *        MOSUNNY   70  43  37 NW18G29   30.22F
CHARITON *     MOSUNNY   70  41  35 NW15G29   30.24F
DES MOINES     MOSUNNY   72  42  34 NW21G29   30.23F
GRINNELL*      MOSUNNY   70  43  38 NW18G26   30.22F
KNOXVILLE *    MOSUNNY   70  43  37 NW18      30.22S
MARSHALLTOWN   SUNNY     69  46  43 NW21G30   30.20F
NEWTON *       MOSUNNY   70  43  37 NW18      30.22F
PELLA *        MOSUNNY   70  42  35 NW12G25   30.24S
PERRY *          N/A     70  40  33 NW14G23   30.25F
$$

IAZ004>006-015-016-023>025-035-036-252000-
   NORTH CENTRAL IOWA

CITY           SKY/WX    TMP DP  RH WIND       PRES   REMARKS
ALGONA *       MOSUNNY   68  39  34 NW18G26   30.22F
CLARION *        N/A     68  41  37 NW23G29   30.21F
ESTHERVILLE    MOSUNNY   66  42  41 NW23G30   30.23F
FORT DODGE *   MOSUNNY   70  45  40 NW13G18   30.24F
MASON CITY     PTSUNNY   66  44  45 NW17G33   30.22S
FOREST CITY *    N/A     68  30  24 NW17G29   30.20F
WEBSTER CITY * MOSUNNY   68  43  40 NW15G25   30.21S
IOWA FALLS *     N/A     69  43  38 NW13G23   30.22F
$$

IAZ007>011-017>019-026>030-037>042-050>054-066-252000-
   NORTHEAST IOWA

CITY           SKY/WX    TMP DP  RH WIND       PRES   REMARKS
CEDAR RAPIDS   PTSUNNY   66  50  56 NW20G30   30.18F
CHARLES CITY * CLOUDY    64  50  59 NW14G21   30.19F
CLINTON *      CLOUDY    65  50  58 W21       30.17S
DECORAH *      CLOUDY    59  50  72 W9G16     30.16F
DUBUQUE        CLOUDY    59  49  69 W15       30.18S
MONTICELLO *   CLOUDY    63  50  63 NW16G24   30.18F
OELWEIN *      CLOUDY    63  50  63 NW15      30.20S
WATERLOO       CLOUDY    66  46  48 W13G22    30.18F
$$

IAZ064-065-067-068-078-252000-
   EAST CENTRAL IOWA

CITY           SKY/WX    TMP DP  RH WIND       PRES   REMARKS
DAVENPORT      CLOUDY    66  48  52 W17G25    30.18S
IOWA CITY      PTSUNNY   69  49  48 NW14G28   30.20F
MUSCATINE *    PTSUNNY   70  46  43 NW17      30.19S
QUAD CITIES    CLOUDY    68  48  48 W15G25    30.17S
$$

IAZ062-063-075>077-085>089-095>099-252000-
   SOUTHEAST IOWA

CITY           SKY/WX    TMP DP  RH WIND       PRES   REMARKS
BURLINGTON     MOSUNNY   71  47  42 NW13G23   30.19F
FAIRFIELD *    MOSUNNY   72  43  35 NW15G29   30.20F
FORT MADISON * MOSUNNY   72  46  40 W13G21    30.21F
KEOKUK *       MOSUNNY   72  45  37 W17G23    30.20F
OSKALOOSA *      N/A     70  44  38 NW14G23   30.22F
OTTUMWA        MOSUNNY   72  45  37 W10G24    30.21F
WASHINGTON *   MOSUNNY   72  46  40 W20G26    30.21S
$$

ABBREVIATIONS USED IN REMARKS
   TC - TEMPERATURES IN CELSIUS
  WCI - WIND CHILL INDEX
   HX - HEAT INDEX
  VSB - VISIBILITY
$$





USA.gov is the U.S. government's official web portal to all federal, state and local government web resources and services.